Stations météo

Publicité
Socoa, France (7600): Température de l'air & dewpoint: 26.10.2020 00:00:00 - 01.11.2020 00:00:00 (CET)Socoa, France (7600): Vitesse du vent & gusts: 26.10.2020 00:00:00 - 01.11.2020 00:00:00 (CET)Socoa, France (7600): Direction du vent: 26.10.2020 00:00:00 - 01.11.2020 00:00:00 (CET)Socoa, France (7600): reduced air pressure: 26.10.2020 00:00:00 - 01.11.2020 00:00:00 (CET)Socoa, France (7600): visibility: 26.10.2020 00:00:00 - 01.11.2020 00:00:00 (CET)Socoa, France (7600): Quantités de précipitations: 26.10.2020 00:00:00 - 01.11.2020 00:00:00 (CET)
Date & Time tt [°C] td [°C] ff [km/h] ff [knt] fx [km/h] fx [knt] dd ppp [hPa] vv [km] rr [mm]
01.11.2020 00:00:00 16,3 10,8 14 8 27 14 S 1022,0 - 0,0
31.10.2020 23:00:00 14,7 11,3 9 5 15 8 S 1021,9 - 0,0
31.10.2020 22:00:00 15,5 11,5 3 2 23 13 SSW 1021,6 24 0,0
31.10.2020 21:00:00 16,2 12,2 8 5 19 11 SE 1021,4 - 0,0
31.10.2020 20:00:00 16,2 12,2 8 4 14 8 SE 1022,0 - 0,0
31.10.2020 19:00:00 17,7 12,2 10 5 17 9 SE 1022,0 25 0,0
31.10.2020 18:00:00 19,7 13,2 9 5 13 7 SE 1021,6 - 0,0
31.10.2020 17:00:00 22,2 11,6 8 4 10 6 SE 1021,3 - 0,0
31.10.2020 16:00:00 22,7 12,6 8 4 11 6 NNE 1021,5 25 0,0
31.10.2020 15:00:00 21,7 13,6 5 3 16 9 N 1022,1 - 0,0
31.10.2020 14:00:00 24,7 11,3 4 2 17 9 NW 1021,3 - 0,0
31.10.2020 13:00:00 26,0 9,3 16 9 31 17 S 1021,4 26 0,0
31.10.2020 12:00:00 25,2 10,6 9 5 19 10 S 1021,8 - 0,0
31.10.2020 11:00:00 24,2 12,2 8 4 14 8 S 1022,4 - 0,0
31.10.2020 10:00:00 21,1 12,5 5 3 15 8 S 1022,8 22 0,0
31.10.2020 09:00:00 18,5 9,6 13 7 32 17 S 1022,4 - 0,0
31.10.2020 08:00:00 16,5 8,7 17 9 30 16 S 1021,4 - 0,0
31.10.2020 07:00:00 15,9 8,6 16 8 32 18 SSE 1021,9 - 0,0
31.10.2020 06:00:00 15,8 8,8 16 9 37 20 S 1022,2 - 0,0
31.10.2020 05:00:00 14,8 9,6 25 14 39 21 S 1022,0 - 0,0
31.10.2020 04:00:00 11,5 10,7 22 12 32 17 S 1022,0 - 0,0
31.10.2020 03:00:00 10,0 9,5 11 6 19 10 SSW 1022,9 - 0,0
31.10.2020 02:00:00 10,4 9,9 9 5 16 9 ESE 1023,2 - 0,2
31.10.2020 01:00:00 10,9 10,4 10 5 16 8 ESE 1023,6 - 0,0
31.10.2020 00:00:00 10,3 9,5 8 4 11 6 SSE 1024,0 - 0,0
30.10.2020 23:00:00 11,1 10,3 6 3 11 6 SSW 1024,3 - 0,0
30.10.2020 22:00:00 11,9 11,1 9 5 11 6 S 1024,4 8 0,0
30.10.2020 21:00:00 12,3 11,4 9 5 10 5 S 1024,6 - 0,0
30.10.2020 20:00:00 13,2 12,1 9 5 11 6 S 1024,5 - 0,0
30.10.2020 19:00:00 13,8 12,0 5 3 10 5 SSW 1024,9 - 0,0
30.10.2020 18:00:00 15,6 13,3 6 4 10 6 WSW 1024,8 - 0,0
30.10.2020 17:00:00 17,3 13,8 6 4 12 6 WNW 1024,7 - 0,0
30.10.2020 16:00:00 18,2 14,5 8 4 14 7 NW 1024,7 12 0,0
30.10.2020 15:00:00 17,4 14,5 9 5 17 9 NW 1024,7 - 0,0
30.10.2020 14:00:00 18,8 14,9 10 5 18 10 WNW 1024,8 - 0,0
30.10.2020 13:00:00 18,8 15,1 13 7 18 10 WNW 1025,0 10 0,0
30.10.2020 12:00:00 18,7 14,8 10 5 15 8 W 1025,4 - 0,0
30.10.2020 11:00:00 17,4 13,9 4 2 10 5 W 1025,7 - 0,0
30.10.2020 10:00:00 14,3 13,5 2 1 6 3 NW 1025,8 6 0,0
30.10.2020 09:00:00 10,7 10,4 2 1 8 5 WNW 1025,6 - 0,2
30.10.2020 08:00:00 8,3 7,7 5 3 11 6 SSE 1025,1 - 0,0
30.10.2020 07:00:00 8,8 8,2 5 3 17 9 SE 1025,1 6 0,0
30.10.2020 06:00:00 8,7 8,1 8 5 16 9 S 1025,3 - 0,0
30.10.2020 05:00:00 9,0 8,4 6 3 11 6 SSE 1025,2 - 0,0
30.10.2020 04:00:00 9,3 8,7 6 3 11 6 SE 1025,2 7 0,0
30.10.2020 03:00:00 9,3 8,5 4 2 10 5 ESE 1025,3 - 0,0
30.10.2020 02:00:00 10,0 9,2 6 4 10 5 WSW 1025,2 - 0,2
30.10.2020 01:00:00 10,2 9,4 5 3 11 6 S 1025,4 6 0,0
30.10.2020 00:00:00 10,7 9,9 6 3 10 5 S 1025,7 - 0,0
29.10.2020 23:00:00 11,2 10,3 5 3 8 4 S 1025,7 - 0,0
29.10.2020 22:00:00 11,8 10,5 2 1 10 6 ESE 1025,7 10 0,0
29.10.2020 21:00:00 12,6 11,2 5 3 9 5 SW 1025,5 - 0,0
29.10.2020 20:00:00 13,9 12,5 6 3 8 4 S 1025,6 - 0,0
29.10.2020 19:00:00 15,8 13,6 2 1 21 12 ENE 1025,3 6 0,0
29.10.2020 18:00:00 16,8 14,3 16 9 25 13 NE 1024,8 - 0,0
29.10.2020 17:00:00 17,9 13,8 18 10 30 16 NNE 1024,8 - 0,0
29.10.2020 16:00:00 17,7 13,6 24 13 29 16 NNE 1024,9 12 0,0
29.10.2020 15:00:00 17,6 13,3 22 12 29 16 NNE 1025,2 - 0,0
29.10.2020 14:00:00 18,2 13,1 20 11 24 13 NNE 1025,9 - 0,0
29.10.2020 13:00:00 18,0 13,3 17 9 20 11 N 1026,5 10 0,0
29.10.2020 12:00:00 19,3 13,5 9 5 16 8 NNE 1026,9 - 0,0
29.10.2020 11:00:00 19,5 13,0 3 2 7 4 ENE 1026,9 - 0,0
29.10.2020 10:00:00 16,9 11,6 4 2 11 6 S 1027,1 8 0,0
29.10.2020 09:00:00 13,3 10,5 5 3 15 8 SE 1026,8 - 0,0
29.10.2020 08:00:00 10,3 8,6 13 7 15 8 S 1026,6 - 0,0
29.10.2020 07:00:00 11,3 8,3 3 2 17 9 SW 1026,4 7 0,0
29.10.2020 06:00:00 12,1 8,8 13 7 18 10 S 1025,9 - 0,0
29.10.2020 05:00:00 12,9 9,0 11 6 14 7 S 1026,2 - 0,0
29.10.2020 04:00:00 13,4 9,3 4 2 14 8 SW 1026,3 10 0,0
29.10.2020 03:00:00 13,5 9,2 14 7 20 11 S 1025,8 - 0,0
29.10.2020 02:00:00 12,5 9,5 13 7 17 9 S 1026,0 - 0,0
29.10.2020 01:00:00 11,1 9,0 14 8 16 9 S 1026,1 - 0,0
29.10.2020 00:00:00 11,4 9,0 8 5 15 8 SSW 1025,6 - 0,0
28.10.2020 23:00:00 11,7 9,3 13 7 19 11 S 1025,1 - 0,0
28.10.2020 22:00:00 12,4 9,8 12 7 17 9 SSW 1025,0 16 0,0
28.10.2020 21:00:00 14,0 9,8 10 5 14 8 S 1024,2 - 0,0
28.10.2020 20:00:00 15,0 10,2 10 5 16 9 SSW 1024,2 - 0,0
28.10.2020 19:00:00 15,4 10,6 12 6 15 8 SSW 1024,0 - 0,0
28.10.2020 18:00:00 16,0 10,7 9 5 17 9 SW 1023,5 - 0,0
28.10.2020 17:00:00 16,9 11,4 8 4 23 12 WSW 1022,8 - 0,0
28.10.2020 16:00:00 17,8 12,0 14 8 26 14 W 1022,5 - 0,0
28.10.2020 15:00:00 18,0 10,8 15 8 25 14 WSW 1022,1 - 0,0
28.10.2020 14:00:00 19,6 12,1 14 8 22 12 WSW 1021,7 - 0,0
28.10.2020 13:00:00 17,1 13,0 2 1 27 15 N 1022,0 - 0,0
28.10.2020 12:00:00 17,3 13,4 8 4 16 9 W 1022,1 - 0,0
28.10.2020 11:00:00 15,8 14,0 5 3 12 7 SSW 1021,6 - 0,0
28.10.2020 10:00:00 14,6 13,3 9 5 19 10 SW 1021,2 16 0,4
28.10.2020 09:00:00 14,6 13,3 6 3 22 12 SSW 1020,4 - 0,0
28.10.2020 08:00:00 14,7 13,2 19 11 39 21 W 1019,4 - 0,0
28.10.2020 07:00:00 14,5 13,4 32 18 46 25 NW 1018,6 - 0,0
28.10.2020 06:00:00 14,1 12,8 9 5 11 6 WSW 1018,2 - 0,0
28.10.2020 05:00:00 14,1 12,5 6 3 11 6 WSW 1017,8 - 0,0
28.10.2020 04:00:00 14,9 13,3 6 3 19 10 SSW 1017,4 15 0,0
28.10.2020 03:00:00 15,3 13,8 8 4 24 13 WNW 1017,4 - 0,0
28.10.2020 02:00:00 16,0 14,2 16 8 27 14 WNW 1017,1 - 0,0
28.10.2020 01:00:00 15,5 10,5 7 4 22 12 SW 1016,9 22 0,0
28.10.2020 00:00:00 15,4 10,2 12 7 20 11 SSW 1016,1 - 0,0
27.10.2020 23:00:00 15,4 10,0 16 9 26 14 S 1015,5 - 0,0
27.10.2020 22:00:00 16,6 9,8 16 9 35 19 S 1015,2 22 0,0
27.10.2020 21:00:00 16,3 9,9 26 14 42 23 S 1014,3 - 0,0
27.10.2020 20:00:00 15,9 10,0 25 13 42 23 S 1014,2 - 0,0
27.10.2020 19:00:00 14,8 10,4 22 12 42 23 S 1014,0 20 0,0
27.10.2020 18:00:00 14,4 11,0 17 9 29 16 S 1014,1 - 0,6
27.10.2020 17:00:00 16,5 10,6 16 9 35 19 SSW 1014,5 - 0,2
27.10.2020 16:00:00 17,6 9,2 18 10 30 16 S 1013,7 20 0,0
27.10.2020 15:00:00 18,3 8,8 20 11 33 18 S 1013,7 - 0,0
27.10.2020 14:00:00 17,9 8,5 18 10 33 18 S 1014,0 - 0,0
27.10.2020 13:00:00 16,8 7,7 18 10 37 20 S 1014,8 24 0,0
27.10.2020 12:00:00 15,2 7,5 22 12 46 25 S 1015,4 - 0,0
27.10.2020 11:00:00 13,8 7,1 23 12 36 20 S 1015,9 - 0,0
27.10.2020 10:00:00 13,1 8,6 11 6 19 10 S 1016,3 20 0,0
27.10.2020 09:00:00 11,8 7,7 13 7 27 15 S 1016,2 - 0,0
27.10.2020 08:00:00 11,4 7,1 17 9 28 15 SSW 1016,0 - 0,0
27.10.2020 07:00:00 10,8 7,1 16 8 26 14 SSW 1015,9 - 0,0
27.10.2020 06:00:00 11,7 6,6 21 11 29 16 SSW 1016,1 - 0,0
27.10.2020 05:00:00 11,7 6,8 21 12 29 16 SSW 1016,1 - 0,0
27.10.2020 04:00:00 11,6 7,5 20 11 27 15 SSW 1016,5 18 0,0
27.10.2020 03:00:00 11,4 7,9 22 12 29 16 SSW 1017,0 - 0,0
27.10.2020 02:00:00 11,4 8,8 22 12 38 21 SW 1017,6 - 0,4
27.10.2020 01:00:00 11,4 9,3 18 10 38 20 SW 1017,7 18 0,2
27.10.2020 00:00:00 11,6 9,8 27 14 44 24 SW 1018,2 - 1,2
26.10.2020 23:00:00 11,3 9,4 21 11 34 19 SW 1018,0 - 0,0
26.10.2020 22:00:00 11,1 9,2 15 8 67 36 SSW 1017,9 - 2,6
26.10.2020 21:00:00 12,3 10,5 34 18 66 35 WNW 1017,8 - 0,9
26.10.2020 20:00:00 11,1 9,5 21 11 68 37 SW 1017,8 - 1,6
26.10.2020 19:00:00 12,1 10,7 40 22 68 37 WNW 1017,9 10 2,8
26.10.2020 18:00:00 12,2 9,0 32 17 68 37 SW 1016,7 - 0,0
26.10.2020 17:00:00 13,6 9,4 41 22 70 38 W 1016,5 - 0,0
26.10.2020 16:00:00 12,7 10,1 37 20 69 37 W 1016,1 10 1,0
26.10.2020 15:00:00 13,7 9,9 34 18 75 41 WSW 1016,0 - 0,0
26.10.2020 14:00:00 14,1 10,7 44 24 68 37 W 1016,0 - 1,0
26.10.2020 13:00:00 11,3 9,2 20 11 43 23 WSW 1016,3 10 4,9
26.10.2020 12:00:00 12,5 9,1 26 14 71 38 SW 1016,0 - 0,0
26.10.2020 11:00:00 10,9 10,0 23 13 47 25 SW 1015,9 - 3,0
26.10.2020 10:00:00 9,7 8,5 20 11 46 25 SW 1015,2 10 2,0
26.10.2020 09:00:00 9,5 8,3 20 11 44 24 SSW 1014,5 - 1,7
26.10.2020 08:00:00 9,7 8,8 27 15 42 23 SSW 1013,9 - 3,2
26.10.2020 07:00:00 9,7 8,8 23 13 42 23 SW 1013,3 12 3,2
26.10.2020 06:00:00 9,1 7,7 19 10 46 25 SW 1013,2 - 4,9
26.10.2020 05:00:00 10,0 8,9 17 9 46 25 SSW 1012,0 - 2,6
26.10.2020 04:00:00 10,3 8,7 36 20 56 30 WSW 1011,8 12 2,0
26.10.2020 03:00:00 10,5 8,8 31 17 62 34 SW 1011,4 - 2,6
26.10.2020 02:00:00 10,5 9,1 16 8 54 29 SSW 1011,8 - 4,7
26.10.2020 01:00:00 11,3 9,4 46 25 61 33 WNW 1012,1 - 2,8
26.10.2020 00:00:00 10,9 8,5 19 11 28 15 SSW 1011,3 - 0,0

tt = Température de l'air
td = dewpoint
ff = Vitesse du vent
fx = gusts
dd = Direction du vent
ppp = reduced air pressure
vv = visibility
rr = Quantités de précipitations

stations d'obs. à proximité